Home > Time Zones > World Clock > Weather > Iran > Rasht > Past weeks

Flag for Iran Weather past 2 weeks in Rasht, Iran

Now
52 °F

Fog.


Feels Like: 51 °F
Forecast: 44 / 61 °F
Wind: 5 mph from East

Location: Rasht Airport

Current Time: Dec 21, 2014 at 6:53:56 PM

Latest Report: Dec 21, 2014 at 6:30 PM


Visibility: 2 mi

Pressure: 30.09 "Hg

Humidity: 94%

Dew point: 50 °F

Location of RashtLocation

Historic Weather in Rasht — Graph

°F

Rasht temperature yesterday

Maximum temperature yesterday: 57 °F (at 12:30 PM)
Minimum temperature yesterday: 48 °F (at 6:30 AM)
Average temperature yesterday: 52 °F

Past Weeks' High & Low Weather Summary

 TemperatureHumidityPressure
High59 °F (Dec 9, 1:30 PM)100% (Dec 6, 5:30 PM)30.63 "Hg (Dec 6, 5:30 PM)
Low41 °F (Dec 18, 8:00 AM)63% (Dec 9, 1:30 PM)30.01 "Hg (Dec 19, 1:30 PM)
Average51 °F90%30.26 "Hg
* Reported Dec 6 5:30 PM — Dec 21 5:30 PM, Rasht, Weather by CustomWeather, © 2014

Note: Actual official high and low records may vary slightly from our data, if they occured in-between our weather recording intervals... More about our weather records

Advertising

Rasht weather history for previous 24 hours

 ConditionsComfort  
Time TempWeatherWind HumidityBarometerVisibility
5:30 PM
Dec 21
54 °FFog.No wind88%30.07 "Hg2 mi
5:00 PM55 °FFog.No wind82%30.07 "Hg2 mi
4:30 PM55 °FFog.No wind82%30.07 "Hg2 mi
4:00 PM55 °FScattered clouds.No wind77%30.07 "Hg2 mi
3:30 PM55 °FScattered clouds.No wind77%30.07 "Hg2 mi
3:00 PM55 °FFog.5 mph88%30.07 "Hg2 mi
2:30 PM55 °FFog.5 mph88%30.07 "Hg2 mi
2:00 PM55 °FPartly sunny.5 mph77%30.07 "Hg2 mi
1:30 PM55 °FPartly sunny.5 mph77%30.07 "Hg2 mi
1:00 PM55 °FFog.5 mph82%30.07 "Hg2 mi
12:30 PM55 °FFog.5 mph82%30.07 "Hg2 mi
12:00 PM55 °FFog.No wind82%30.09 "Hg2 mi
11:30 AM55 °FFog.No wind82%30.09 "Hg2 mi
11:00 AM52 °FFog.5 mph94%30.09 "Hg2 mi
10:30 AM52 °FFog.5 mph94%30.09 "Hg2 mi
10:00 AM52 °FFog.No wind88%30.12 "Hg1 mi
9:30 AM52 °FFog.No wind88%30.12 "Hg1 mi
9:00 AM50 °FFog.No wind100%30.09 "Hg1 mi
8:30 AM50 °FFog.No wind100%30.09 "Hg1 mi
8:00 AM50 °FFog.No wind100%30.09 "Hg1 mi
7:30 AM50 °FFog.No wind100%30.09 "Hg1 mi
7:00 AM50 °FFog.No wind94%30.09 "Hg1 mi
6:30 AM50 °FFog.No wind94%30.09 "Hg1 mi
7:30 PM
Dec 20
50 °FPartly cloudy.5 mph88%30.15 "Hg3 mi
7:00 PM50 °FPartly cloudy.No wind88%30.15 "Hg4 mi
6:30 PM50 °FPartly cloudy.No wind88%30.15 "Hg4 mi
6:00 PM52 °FPartly cloudy.2 mph82%30.15 "Hg4 mi
Weather by CustomWeather, © 2014

See weather overviewHow to use our weather pages